SUL6830 SBCY-SBBR

Flight info

Callsign SUL6830
Flight time 1h 16m
Altitude 35000
Route TORAB UZ8 MABMA DCT UBSUS
Aircraft B738/M-SDFGIKLORWX/LB1

Departure

Time 2026-04-25 05:13
Airport Várzea Grande–Marechal Rondon International Airport (SBCY)

Arrival

Time 2026-04-25 06:29
Airport Presidente Juscelino Kubitschek International Airport (SBBR)
Time Latitude Longitude Altitude Speed Heading
2026-04-25 04:41 -15.64923 -56.12041 596 ft 0 kts 243°
2026-04-25 05:04 -15.64905 -56.12005 595 ft 2 kts 243°
2026-04-25 05:04 -15.64905 -56.12004 595 ft 1 kts 243°
2026-04-25 05:08 -15.64911 -56.12009 595 ft 2 kts 210°
2026-04-25 05:08 -15.64925 -56.12002 595 ft 4 kts 139°
2026-04-25 05:08 -15.64956 -56.11980 595 ft 7 kts 152°
2026-04-25 05:09 -15.65010 -56.11951 596 ft 10 kts 153°
2026-04-25 05:09 -15.65076 -56.11908 596 ft 12 kts 130°
2026-04-25 05:09 -15.65067 -56.11843 597 ft 11 kts 62°
2026-04-25 05:09 -15.64997 -56.11827 596 ft 13 kts 334°
2026-04-25 05:10 -15.64903 -56.11876 595 ft 17 kts 333°
2026-04-25 05:10 -15.64791 -56.11935 595 ft 19 kts 333°
2026-04-25 05:10 -15.64665 -56.12003 595 ft 22 kts 333°
2026-04-25 05:10 -15.64524 -56.12078 594 ft 24 kts 333°
2026-04-25 05:11 -15.64442 -56.12137 595 ft 12 kts 297°
2026-04-25 05:11 -15.64409 -56.12177 596 ft 5 kts
2026-04-25 05:11 -15.64403 -56.12142 595 ft 5 kts 138°
2026-04-25 05:12 -15.64531 -56.12074 594 ft 31 kts 153°
2026-04-25 05:12 -15.64953 -56.11851 595 ft 104 kts 153°
2026-04-25 05:12 -15.65783 -56.11413 627 ft 159 kts 153°
2026-04-25 05:12 -15.66793 -56.10878 1216 ft 166 kts 154°
2026-04-25 05:13 -15.67783 -56.10258 1929 ft 169 kts 133°
2026-04-25 05:13 -15.68214 -56.09120 2475 ft 185 kts 90°
2026-04-25 05:13 -15.68027 -56.07720 2866 ft 207 kts 81°
2026-04-25 05:13 -15.67792 -56.06220 3391 ft 214 kts 83°
2026-04-25 05:14 -15.67650 -56.04639 3740 ft 229 kts 86°
2026-04-25 05:14 -15.67561 -56.02919 3997 ft 248 kts 87°
2026-04-25 05:14 -15.67496 -56.01065 4325 ft 264 kts 88°
2026-04-25 05:15 -15.67556 -55.97192 5941 ft 268 kts 94°
2026-04-25 05:15 -15.67754 -55.95262 6782 ft 270 kts 94°
2026-04-25 05:15 -15.67968 -55.93312 7526 ft 274 kts 95°
2026-04-25 05:15 -15.68184 -55.91330 8272 ft 278 kts 95°
2026-04-25 05:16 -15.68399 -55.89323 9041 ft 282 kts 95°
2026-04-25 05:16 -15.68611 -55.87288 9810 ft 286 kts 95°
2026-04-25 05:16 -15.68824 -55.85210 10361 ft 297 kts 95°
2026-04-25 05:16 -15.69048 -55.82989 10519 ft 321 kts 95°
2026-04-25 05:17 -15.69285 -55.80600 10708 ft 342 kts 95°
2026-04-25 05:17 -15.69532 -55.78101 11155 ft 352 kts 95°
2026-04-25 05:17 -15.69781 -55.75560 11771 ft 355 kts 95°
2026-04-25 05:17 -15.70027 -55.73026 12413 ft 359 kts 95°
2026-04-25 05:18 -15.70279 -55.70427 13033 ft 364 kts 95°
2026-04-25 05:18 -15.70534 -55.67795 13651 ft 369 kts 95°
2026-04-25 05:18 -15.70790 -55.65140 14222 ft 373 kts 95°
2026-04-25 05:18 -15.71049 -55.62447 14852 ft 375 kts 95°
2026-04-25 05:19 -15.71308 -55.59747 15495 ft 377 kts 95°
2026-04-25 05:19 -15.71569 -55.57024 16119 ft 380 kts 95°
2026-04-25 05:19 -15.71831 -55.54287 16722 ft 383 kts 95°
2026-04-25 05:19 -15.72094 -55.51528 17309 ft 385 kts 95°
2026-04-25 05:20 -15.72359 -55.48753 17878 ft 388 kts 94°
2026-04-25 05:20 -15.72623 -55.45988 18424 ft 391 kts 94°
2026-04-25 05:20 -15.72894 -55.43139 18903 ft 394 kts 94°
2026-04-25 05:20 -15.73164 -55.40300 19376 ft 396 kts 94°
2026-04-25 05:21 -15.73435 -55.37442 19839 ft 399 kts 94°
2026-04-25 05:21 -15.73707 -55.34565 20290 ft 402 kts 94°
2026-04-25 05:21 -15.73977 -55.31714 20729 ft 404 kts 94°
2026-04-25 05:21 -15.74253 -55.28798 21168 ft 407 kts 94°
2026-04-25 05:22 -15.74530 -55.25864 21599 ft 409 kts 94°
2026-04-25 05:22 -15.74808 -55.22912 22037 ft 412 kts 94°
2026-04-25 05:22 -15.75086 -55.19954 22452 ft 414 kts 94°
2026-04-25 05:22 -15.75367 -55.16966 22842 ft 417 kts 94°
2026-04-25 05:23 -15.75649 -55.13960 23230 ft 419 kts 94°
2026-04-25 05:23 -15.75932 -55.10933 23596 ft 422 kts 94°
2026-04-25 05:23 -15.76216 -55.07900 23922 ft 424 kts 94°
2026-04-25 05:23 -15.76502 -55.04846 24277 ft 425 kts 94°
2026-04-25 05:24 -15.76788 -55.01787 24639 ft 426 kts 94°
2026-04-25 05:24 -15.77073 -54.98721 24984 ft 427 kts 94°
2026-04-25 05:24 -15.77355 -54.95689 25327 ft 428 kts 94°
2026-04-25 05:24 -15.77644 -54.92578 25660 ft 429 kts 94°
2026-04-25 05:25 -15.77931 -54.89489 25970 ft 431 kts 94°
2026-04-25 05:25 -15.78215 -54.86418 26281 ft 432 kts 94°
2026-04-25 05:25 -15.78504 -54.83294 26588 ft 433 kts 94°
2026-04-25 05:25 -15.78792 -54.80172 26902 ft 435 kts 94°
2026-04-25 05:26 -15.79080 -54.77043 27199 ft 436 kts 94°
2026-04-25 05:26 -15.79369 -54.73900 27504 ft 437 kts 94°
2026-04-25 05:26 -15.79658 -54.70754 27814 ft 438 kts 94°
2026-04-25 05:26 -15.79948 -54.67588 28080 ft 440 kts 95°
2026-04-25 05:27 -15.80239 -54.64411 28312 ft 443 kts 95°
2026-04-25 05:27 -15.80528 -54.61251 28576 ft 445 kts 95°
2026-04-25 05:27 -15.80820 -54.58050 28876 ft 445 kts 95°
2026-04-25 05:27 -15.81112 -54.54844 29162 ft 446 kts 95°
2026-04-25 05:28 -15.81404 -54.51629 29421 ft 448 kts 95°
2026-04-25 05:28 -15.81697 -54.48402 29711 ft 448 kts 95°
2026-04-25 05:28 -15.81989 -54.45184 30107 ft 446 kts 95°
2026-04-25 05:28 -15.82279 -54.41984 30485 ft 444 kts 95°
2026-04-25 05:29 -15.82567 -54.38795 30782 ft 444 kts 95°
2026-04-25 05:29 -15.82855 -54.35599 31023 ft 445 kts 95°
2026-04-25 05:29 -15.83144 -54.32396 31302 ft 445 kts 95°
2026-04-25 05:29 -15.83431 -54.29198 31626 ft 445 kts 95°
2026-04-25 05:30 -15.83718 -54.25997 31954 ft 444 kts 95°
2026-04-25 05:30 -15.84004 -54.22806 32250 ft 444 kts 95°
2026-04-25 05:30 -15.84287 -54.19648 32568 ft 444 kts 95°
2026-04-25 05:30 -15.84572 -54.16454 32896 ft 444 kts 95°
2026-04-25 05:31 -15.84856 -54.13268 33217 ft 443 kts 95°
2026-04-25 05:31 -15.85140 -54.10072 33541 ft 443 kts 95°
2026-04-25 05:31 -15.85424 -54.06886 33859 ft 443 kts 95°
2026-04-25 05:31 -15.85706 -54.03700 34153 ft 443 kts 95°
2026-04-25 05:32 -15.85988 -54.00516 34434 ft 442 kts 95°
2026-04-25 05:32 -15.86269 -53.97340 34750 ft 441 kts 95°
2026-04-25 05:32 -15.86548 -53.94176 34981 ft 442 kts 95°
2026-04-25 05:33 -15.87112 -53.87771 34983 ft 445 kts 95°
2026-04-25 05:33 -15.87671 -53.81399 34973 ft 439 kts 95°
2026-04-25 05:34 -15.88222 -53.75101 34989 ft 438 kts 95°
2026-04-25 05:34 -15.88771 -53.68795 34984 ft 438 kts 95°
2026-04-25 05:35 -15.89317 -53.62516 34985 ft 439 kts 95°
2026-04-25 05:35 -15.89863 -53.56202 34989 ft 439 kts 95°
2026-04-25 05:36 -15.90409 -53.49871 34984 ft 440 kts 95°
2026-04-25 05:36 -15.90954 -53.43532 34980 ft 441 kts 95°
2026-04-25 05:37 -15.91500 -53.37164 34978 ft 442 kts 95°
2026-04-25 05:37 -15.92040 -53.30842 34981 ft 442 kts 95°
2026-04-25 05:38 -15.92582 -53.24470 34981 ft 443 kts 95°
2026-04-25 05:38 -15.93123 -53.18090 34977 ft 443 kts 95°
2026-04-25 05:39 -15.93571 -53.12789 34979 ft 443 kts 95°
2026-04-25 05:39 -15.94108 -53.06414 34977 ft 443 kts 95°
2026-04-25 05:40 -15.94643 -53.00038 34980 ft 442 kts 95°
2026-04-25 05:40 -15.95176 -52.93667 34977 ft 442 kts 95°
2026-04-25 05:41 -15.95702 -52.87349 34978 ft 441 kts 95°
2026-04-25 05:41 -15.96230 -52.80992 34973 ft 441 kts 95°
2026-04-25 05:42 -15.96756 -52.74639 34976 ft 440 kts 95°
2026-04-25 05:42 -15.97278 -52.68301 34975 ft 440 kts 95°
2026-04-25 05:43 -15.97799 -52.61965 34972 ft 440 kts 95°
2026-04-25 05:43 -15.98315 -52.55655 34976 ft 440 kts 95°
2026-04-25 05:44 -15.98833 -52.49313 35012 ft 440 kts 95°
2026-04-25 05:44 -15.99348 -52.42974 35013 ft 440 kts 95°
2026-04-25 05:45 -15.99862 -52.36622 35015 ft 441 kts 95°
2026-04-25 05:45 -16.00374 -52.30274 35007 ft 441 kts 95°
2026-04-25 05:46 -16.00884 -52.23928 35003 ft 441 kts 95°
2026-04-25 05:46 -16.01393 -52.17573 34988 ft 441 kts 95°
2026-04-25 05:47 -16.01899 -52.11226 34979 ft 441 kts 94°
2026-04-25 05:47 -16.02404 -52.04873 34967 ft 441 kts 94°
2026-04-25 05:48 -16.02907 -51.98523 34964 ft 441 kts 95°
2026-04-25 05:48 -16.03405 -51.92207 34967 ft 441 kts 95°
2026-04-25 05:49 -16.03904 -51.85853 34965 ft 441 kts 94°
2026-04-25 05:49 -16.04403 -51.79484 34966 ft 441 kts 95°
2026-04-25 05:50 -16.04898 -51.73134 34970 ft 441 kts 95°
2026-04-25 05:50 -16.05392 -51.66781 34960 ft 441 kts 94°
2026-04-25 05:51 -16.05884 -51.60416 34973 ft 441 kts 94°
2026-04-25 05:51 -16.06372 -51.54089 34971 ft 442 kts 95°
2026-04-25 05:52 -16.06862 -51.47712 34977 ft 442 kts 94°
2026-04-25 05:52 -16.07350 -51.41328 34977 ft 443 kts 94°
2026-04-25 05:53 -16.07837 -51.34936 34975 ft 444 kts 94°
2026-04-25 05:53 -16.08322 -51.28538 34978 ft 444 kts 95°
2026-04-25 05:54 -16.08807 -51.22135 34980 ft 444 kts 95°
2026-04-25 05:54 -16.09527 -51.12560 34977 ft 444 kts 95°
2026-04-25 05:55 -16.10006 -51.06154 34978 ft 444 kts 95°
2026-04-25 05:55 -16.10483 -50.99750 34980 ft 444 kts 94°
2026-04-25 05:56 -16.10959 -50.93346 34981 ft 444 kts 94°
2026-04-25 05:56 -16.11432 -50.86946 34981 ft 443 kts 95°
2026-04-25 05:57 -16.11903 -50.80550 34978 ft 443 kts 95°
2026-04-25 05:57 -16.12372 -50.74157 34987 ft 443 kts 94°
2026-04-25 05:58 -16.12836 -50.67797 34989 ft 443 kts 94°
2026-04-25 05:58 -16.13301 -50.61400 34987 ft 443 kts 95°
2026-04-25 05:59 -16.13764 -50.55010 34992 ft 444 kts 95°
2026-04-25 05:59 -16.14226 -50.48602 34994 ft 444 kts 94°
2026-04-25 06:00 -16.14687 -50.42193 34998 ft 444 kts 94°
2026-04-25 06:00 -16.15146 -50.35776 35006 ft 445 kts 95°
2026-04-25 06:01 -16.15603 -50.29357 35005 ft 445 kts 94°
2026-04-25 06:01 -16.16059 -50.22924 35009 ft 445 kts 94°
2026-04-25 06:02 -16.16511 -50.16531 35005 ft 446 kts 94°
2026-04-25 06:02 -16.16963 -50.10095 35012 ft 446 kts 94°
2026-04-25 06:03 -16.17413 -50.03668 35012 ft 446 kts 94°
2026-04-25 06:03 -16.17862 -49.97229 35016 ft 446 kts 94°
2026-04-25 06:04 -16.18309 -49.90787 35022 ft 446 kts 94°
2026-04-25 06:04 -16.18751 -49.84388 35021 ft 446 kts 94°
2026-04-25 06:05 -16.19195 -49.77940 35025 ft 446 kts 94°
2026-04-25 06:05 -16.19627 -49.71613 35004 ft 424 kts 94°
2026-04-25 06:06 -16.19832 -49.68609 34988 ft 410 kts 94°
2026-04-25 06:06 -16.20031 -49.65688 34848 ft 401 kts 94°
2026-04-25 06:06 -16.20229 -49.62782 34112 ft 408 kts 94°
2026-04-25 06:06 -16.20433 -49.59778 32940 ft 423 kts 94°
2026-04-25 06:07 -16.20642 -49.56703 31994 ft 434 kts 94°
2026-04-25 06:07 -16.20852 -49.53595 31525 ft 430 kts 94°
2026-04-25 06:07 -16.21060 -49.50500 31063 ft 427 kts 94°
2026-04-25 06:07 -16.21267 -49.47434 30593 ft 424 kts 94°
2026-04-25 06:08 -16.21472 -49.44381 30105 ft 422 kts 94°
2026-04-25 06:08 -16.21675 -49.41338 29570 ft 419 kts 94°
2026-04-25 06:08 -16.21876 -49.38331 29060 ft 416 kts 94°
2026-04-25 06:08 -16.22076 -49.35338 28561 ft 412 kts 94°
2026-04-25 06:09 -16.22273 -49.32375 28100 ft 408 kts 94°
2026-04-25 06:09 -16.22468 -49.29437 27637 ft 405 kts 94°
2026-04-25 06:09 -16.22662 -49.26519 27185 ft 402 kts 94°
2026-04-25 06:09 -16.22853 -49.23626 26733 ft 399 kts 94°
2026-04-25 06:10 -16.23043 -49.20752 26283 ft 397 kts 94°
2026-04-25 06:10 -16.23231 -49.17892 25822 ft 395 kts 93°
2026-04-25 06:10 -16.23419 -49.15044 25369 ft 394 kts 93°
2026-04-25 06:10 -16.23605 -49.12209 24908 ft 392 kts 93°
2026-04-25 06:11 -16.23790 -49.09382 24454 ft 391 kts 93°
2026-04-25 06:11 -16.23974 -49.06560 24008 ft 390 kts 93°
2026-04-25 06:11 -16.24158 -49.03739 23488 ft 389 kts 93°
2026-04-25 06:11 -16.24338 -49.00973 22996 ft 387 kts 93°
2026-04-25 06:12 -16.24521 -48.98152 22518 ft 384 kts 92°
2026-04-25 06:12 -16.24605 -48.95421 21978 ft 383 kts 89°
2026-04-25 06:12 -16.24583 -48.92652 21501 ft 381 kts 88°
2026-04-25 06:12 -16.24531 -48.89907 21055 ft 378 kts 88°
2026-04-25 06:13 -16.24474 -48.87183 20596 ft 376 kts 87°
2026-04-25 06:13 -16.24239 -48.84472 20092 ft 375 kts 82°
2026-04-25 06:13 -16.23864 -48.81791 19620 ft 374 kts 81°
2026-04-25 06:14 -16.23035 -48.76471 18692 ft 371 kts 80°
2026-04-25 06:14 -16.22634 -48.73829 18139 ft 370 kts 81°
2026-04-25 06:14 -16.22244 -48.71190 17658 ft 367 kts 81°
2026-04-25 06:14 -16.21865 -48.68573 17208 ft 364 kts 81°
2026-04-25 06:15 -16.21494 -48.65974 16759 ft 362 kts 81°
2026-04-25 06:15 -16.21128 -48.63390 16317 ft 359 kts 81°
2026-04-25 06:15 -16.20766 -48.60829 15887 ft 357 kts 81°
2026-04-25 06:15 -16.20406 -48.58275 15435 ft 356 kts 81°
2026-04-25 06:16 -16.20048 -48.55739 15004 ft 354 kts 81°
2026-04-25 06:16 -16.19694 -48.53234 14567 ft 353 kts 81°
2026-04-25 06:16 -16.19336 -48.50704 14122 ft 352 kts 81°
2026-04-25 06:16 -16.18979 -48.48185 13658 ft 352 kts 81°
2026-04-25 06:17 -16.18623 -48.45673 13192 ft 350 kts 81°
2026-04-25 06:17 -16.18269 -48.43175 12754 ft 348 kts 81°
2026-04-25 06:17 -16.17917 -48.40692 12286 ft 347 kts 81°
2026-04-25 06:17 -16.17568 -48.38232 12064 ft 338 kts 81°
2026-04-25 06:18 -16.17229 -48.35851 11909 ft 328 kts 81°
2026-04-25 06:18 -16.16901 -48.33543 11765 ft 318 kts 81°
2026-04-25 06:18 -16.16581 -48.31296 11626 ft 309 kts 81°
2026-04-25 06:18 -16.16271 -48.29118 11508 ft 300 kts 81°
2026-04-25 06:19 -16.15968 -48.26995 11388 ft 292 kts 81°
2026-04-25 06:19 -16.15653 -48.24970 11267 ft 283 kts 74°
2026-04-25 06:19 -16.14758 -48.23182 11132 ft 272 kts 45°
2026-04-25 06:19 -16.13287 -48.22026 10882 ft 268 kts 24°
2026-04-25 06:20 -16.11533 -48.21418 10638 ft 264 kts 13°
2026-04-25 06:20 -16.09745 -48.20972 10382 ft 263 kts 12°
2026-04-25 06:20 -16.07963 -48.20540 10125 ft 263 kts 12°
2026-04-25 06:20 -16.06195 -48.20105 9955 ft 258 kts 13°
2026-04-25 06:21 -16.04474 -48.19672 9823 ft 251 kts 13°
2026-04-25 06:21 -16.02799 -48.19247 9713 ft 243 kts 13°
2026-04-25 06:21 -16.01181 -48.18833 9487 ft 237 kts 13°
2026-04-25 06:21 -15.99601 -48.18429 9238 ft 231 kts 13°
2026-04-25 06:22 -15.98081 -48.18062 9002 ft 224 kts 12°
2026-04-25 06:22 -15.96573 -48.17729 8774 ft 218 kts 12°
2026-04-25 06:22 -15.95109 -48.17408 8554 ft 212 kts 12°
2026-04-25 06:22 -15.93677 -48.17092 8351 ft 208 kts 12°
2026-04-25 06:23 -15.92264 -48.16779 8155 ft 208 kts 12°
2026-04-25 06:23 -15.90845 -48.16464 7952 ft 208 kts 12°
2026-04-25 06:23 -15.89412 -48.16137 7634 ft 214 kts 17°
2026-04-25 06:23 -15.88193 -48.15331 7380 ft 207 kts 55°
2026-04-25 06:24 -15.87700 -48.13983 7203 ft 197 kts 81°
2026-04-25 06:24 -15.87569 -48.12582 6977 ft 192 kts 86°
2026-04-25 06:24 -15.87495 -48.11218 6770 ft 186 kts 87°
2026-04-25 06:24 -15.87441 -48.09905 6619 ft 179 kts 87°
2026-04-25 06:25 -15.87374 -48.08628 6398 ft 175 kts 86°
2026-04-25 06:25 -15.87324 -48.07801 6254 ft 172 kts 86°
2026-04-25 06:25 -15.87224 -48.06226 5970 ft 157 kts 86°
2026-04-25 06:25 -15.87152 -48.05115 5787 ft 154 kts 86°
2026-04-25 06:26 -15.87080 -48.04009 5590 ft 152 kts 86°
2026-04-25 06:26 -15.87033 -48.03284 5466 ft 151 kts 86°
2026-04-25 06:26 -15.86963 -48.02199 5278 ft 149 kts 86°
2026-04-25 06:26 -15.86894 -48.01124 5097 ft 149 kts 86°
2026-04-25 06:27 -15.86848 -48.00415 4974 ft 149 kts 86°
2026-04-25 06:27 -15.86756 -47.98982 4707 ft 147 kts 86°
2026-04-25 06:27 -15.86697 -47.97917 4487 ft 148 kts 86°
2026-04-25 06:27 -15.86632 -47.96849 4254 ft 152 kts 85°
2026-04-25 06:28 -15.86554 -47.95733 4058 ft 158 kts 85°
2026-04-25 06:28 -15.86482 -47.94593 3890 ft 159 kts 87°
2026-04-25 06:28 -15.86405 -47.93448 3660 ft 158 kts 86°
2026-04-25 06:28 -15.86324 -47.92306 3471 ft 156 kts 86°
2026-04-25 06:29 -15.86264 -47.91313 3463 ft 116 kts 86°
2026-04-25 06:29 -15.86248 -47.90878 3477 ft 16 kts 107°
2026-04-25 06:29 -15.86289 -47.90810 3480 ft 16 kts 133°
2026-04-25 06:29 -15.86356 -47.90734 3479 ft 9 kts 132°
2026-04-25 06:30 -15.86410 -47.90731 3484 ft 9 kts 226°
2026-04-25 06:30 -15.86424 -47.90794 3481 ft 10 kts 266°
2026-04-25 06:30 -15.86430 -47.90871 3479 ft 12 kts 266°
2026-04-25 06:30 -15.86436 -47.90968 3474 ft 15 kts 268°
2026-04-25 06:31 -15.86442 -47.91087 3470 ft 17 kts 266°
2026-04-25 06:31 -15.86451 -47.91212 3468 ft 16 kts 266°
2026-04-25 06:31 -15.86458 -47.91322 3467 ft 15 kts 265°
2026-04-25 06:31 -15.86464 -47.91429 3465 ft 15 kts 266°
2026-04-25 06:32 -15.86471 -47.91535 3463 ft 15 kts 266°
2026-04-25 06:32 -15.86478 -47.91639 3464 ft 14 kts 266°
2026-04-25 06:32 -15.86485 -47.91739 3466 ft 14 kts 266°
2026-04-25 06:32 -15.86491 -47.91835 3468 ft 13 kts 266°
2026-04-25 06:33 -15.86496 -47.91927 3468 ft 13 kts 266°
2026-04-25 06:33 -15.86502 -47.92017 3467 ft 12 kts 266°
2026-04-25 06:33 -15.86508 -47.92105 3467 ft 12 kts 266°
2026-04-25 06:33 -15.86514 -47.92190 3468 ft 12 kts 266°
2026-04-25 06:34 -15.86519 -47.92274 3468 ft 11 kts 266°
2026-04-25 06:34 -15.86525 -47.92355 3468 ft 11 kts 260°
2026-04-25 06:34 -15.86575 -47.92410 3469 ft 11 kts 210°
2026-04-25 06:34 -15.86640 -47.92447 3469 ft 10 kts 208°
2026-04-25 06:35 -15.86703 -47.92482 3471 ft 10 kts 208°
2026-04-25 06:35 -15.86765 -47.92516 3470 ft 10 kts 209°
2026-04-25 06:35 -15.86795 -47.92580 3467 ft 11 kts 265°
2026-04-25 06:35 -15.86797 -47.92612 3466 ft 2 kts 266°
2026-04-25 06:36 -15.86798 -47.92625 3466 ft 2 kts 266°
2026-04-25 06:36 -15.86799 -47.92637 3467 ft 2 kts 266°
2026-04-25 06:36 -15.86803 -47.92648 3467 ft 2 kts 233°
2026-04-25 06:36 -15.86817 -47.92654 3466 ft 3 kts 194°
2026-04-25 06:37 -15.86840 -47.92655 3467 ft 3 kts 179°
2026-04-25 06:37 -15.86853 -47.92654 3467 ft 2 kts 178°
2026-04-25 06:37 -15.86854 -47.92654 3467 ft 0 kts 178°